| time (UTC) | temp C | wind direction | speed KPH | gust KPH | rain 1hr cm | rain 24hr cm | rain mn cm | humidity % | barometer mb |
| 20260504081551 | 16 | 214 | 1.6 | 11.3 | 0.00 | 0.00 | 0.00 | 61 | 1010.7 |
| 20260504044541 | 18 | 0 | 0.0 | 4.8 | 0.00 | 0.00 | 0.00 | 60 | 1012.1 |
| 20260504043048 | 18 | 147 | 0.0 | 6.4 | 0.00 | 0.00 | 0.00 | 60 | 1012.1 |
| 20260504041538 | 18 | 0 | 0.0 | 4.8 | 0.00 | 0.00 | 0.00 | 59 | 1012.2 |
| 20260504040038 | 18 | 214 | 0.0 | 8.0 | 0.00 | 0.00 | 0.00 | 59 | 1012.2 |
| 20260504034536 | 18 | 187 | 0.0 | 3.2 | 0.00 | 0.00 | 0.00 | 59 | 1012.3 |
| 20260504033045 | 18 | 0 | 0.0 | 4.8 | 0.00 | 0.00 | 0.00 | 60 | 1012.4 |
| 20260504031545 | 18 | 0 | 0.0 | 3.2 | 0.00 | 0.00 | 0.00 | 60 | 1012.4 |
| 20260504030043 | 18 | 186 | 0.0 | 3.2 | 0.00 | 0.00 | 0.00 | 60 | 1012.4 |
| 20260504024545 | 18 | 264 | 0.0 | 4.8 | 0.00 | 0.00 | 0.00 | 61 | 1012.2 |
| 20260504023049 | 18 | 0 | 0.0 | 3.2 | 0.00 | 0.00 | 0.00 | 63 | 1012.0 |
| 20260504021547 | 18 | 117 | 0.0 | 1.6 | 0.00 | 0.00 | 0.00 | 64 | 1012.0 |
| 20260504020043 | 18 | 0 | 0.0 | 0.0 | 0.00 | 0.00 | 0.00 | 63 | 1011.9 |
| 20260504014548 | 18 | 160 | 0.0 | 0.0 | 0.00 | 0.00 | 0.00 | 62 | 1011.9 |
| 20260504013050 | 19 | 170 | 0.0 | 0.0 | 0.00 | 0.00 | 0.00 | 59 | 1012.0 |
| 20260504011548 | 20 | 0 | 0.0 | 0.0 | 0.00 | 0.00 | 0.00 | 57 | 1011.9 |
| 20260504010056 | 21 | 0 | 0.0 | 1.6 | 0.00 | 0.00 | 0.00 | 54 | 1011.8 |
| 20260504004605 | 22 | 0 | 0.0 | 1.6 | 0.00 | 0.00 | 0.00 | 51 | 1011.8 |
| 20260504003044 | 23 | 191 | 0.0 | 6.4 | 0.00 | 0.00 | 0.00 | 48 | 1011.8 |
| 20260504001540 | 23 | 0 | 0.0 | 4.8 | 0.00 | 0.00 | 0.00 | 46 | 1012.0 |
| 20260504000042 | 24 | 0 | 0.0 | 4.8 | 0.00 | 0.00 | 0.00 | 45 | 1012.1 |
| 20260503234549 | 24 | 0 | 0.0 | 1.6 | 0.00 | 0.00 | 0.00 | 45 | 1012.5 |
| 20260503233041 | 25 | 298 | 0.0 | 3.2 | 0.00 | 0.00 | 0.00 | 41 | 1012.6 |
| 20260503231537 | 25 | 0 | 0.0 | 4.8 | 0.00 | 0.00 | 0.00 | 39 | 1012.7 |
| 20260503230048 | 26 | 0 | 0.0 | 6.4 | 0.00 | 0.00 | 0.00 | 36 | 1012.7 |
| 20260503224540 | 27 | 180 | 0.0 | 8.0 | 0.00 | 0.00 | 0.00 | 36 | 1012.8 |
| 20260503223041 | 27 | 313 | 0.0 | 6.4 | 0.00 | 0.00 | 0.00 | 35 | 1012.8 |
| 20260503221538 | 28 | 152 | 0.0 | 8.0 | 0.00 | 0.00 | 0.00 | 39 | 1012.8 |
| 20260503220039 | 28 | 126 | 0.0 | 4.8 | 0.00 | 0.00 | 0.00 | 37 | 1012.9 |
| 20260503214546 | 28 | 330 | 0.0 | 11.3 | 0.00 | 0.00 | 0.00 | 36 | 1013.2 |
| 20260503213043 | 28 | 0 | 0.0 | 6.4 | 0.00 | 0.00 | 0.00 | 36 | 1013.4 |
| 20260503211544 | 27 | 179 | 1.6 | 9.7 | 0.00 | 0.00 | 0.00 | 37 | 1013.6 |
| 20260503210041 | 28 | 229 | 0.0 | 11.3 | 0.00 | 0.00 | 0.00 | 38 | 1013.8 |
| 20260503204548 | 28 | 117 | 0.0 | 9.7 | 0.00 | 0.00 | 0.00 | 36 | 1014.1 |
| 20260503203053 | 27 | 237 | 1.6 | 12.9 | 0.00 | 0.00 | 0.00 | 41 | 1014.4 |
| 20260503201538 | 27 | 162 | 1.6 | 17.7 | 0.00 | 0.00 | 0.00 | 39 | 1014.6 |
| 20260503200046 | 27 | 0 | 1.6 | 11.3 | 0.00 | 0.00 | 0.00 | 41 | 1014.8 |
| 20260503194546 | 27 | 221 | 1.6 | 9.7 | 0.00 | 0.00 | 0.00 | 42 | 1014.9 |
| 20260503193045 | 27 | 221 | 1.6 | 16.1 | 0.00 | 0.00 | 0.00 | 42 | 1015.0 |
| 20260503191539 | 27 | 0 | 1.6 | 12.9 | 0.00 | 0.00 | 0.00 | 44 | 1015.3 |
| 20260503190037 | 26 | 128 | 0.0 | 12.9 | 0.00 | 0.00 | 0.00 | 44 | 1015.4 |
| 20260503184539 | 26 | 160 | 1.6 | 6.4 | 0.00 | 0.00 | 0.00 | 43 | 1015.5 |
| 20260503183037 | 26 | 169 | 1.6 | 9.7 | 0.00 | 0.00 | 0.00 | 43 | 1015.6 |
| 20260503181542 | 26 | 0 | 0.0 | 9.7 | 0.00 | 0.00 | 0.00 | 44 | 1016.0 |
| 20260503180052 | 26 | 97 | 1.6 | 11.3 | 0.00 | 0.00 | 0.00 | 43 | 1016.4 |
| 20260503174547 | 25 | 145 | 0.0 | 6.4 | 0.00 | 0.00 | 0.00 | 46 | 1016.6 |
| 20260503173052 | 25 | 215 | 1.6 | 11.3 | 0.00 | 0.00 | 0.00 | 44 | 1016.9 |
| 20260503171543 | 25 | 116 | 3.2 | 11.3 | 0.00 | 0.00 | 0.00 | 44 | 1017.0 |